GFSNW_850_thetae_000.txt.gz
Theta_e
304 304 305 305 305 308 308 314 319 319 318 317 317 319 319 319 321 321 321 321 321 322 324 326 327 327 328 329 329 330 330 330 331 332 330 330 330 331 331 334 340 336 337 346
304 304 304 305 305 306 307 315 317 319 319 319 318 318 319 320 320 321 321 320 321 322 323 325 327 328 328 329 329 330 331 330 331 333 332 331 330 330 331 334 339 340 337 337
304 305 304 304 305 306 307 316 318 317 319 318 319 321 322 321 320 321 321 321 321 321 323 324 325 328 328 328 329 333 332 335 333 332 334 335 333 332 330 333 336 334 333 345
303 304 303 304 305 306 307 317 318 319 321 319 319 320 322 324 322 321 320 321 321 322 323 323 324 327 330 328 327 330 333 341 335 332 334 335 335 334 332 330 333 332 335 338
301 302 303 302 304 307 310 316 317 318 319 320 323 321 320 324 325 322 322 320 322 322 325 325 326 326 329 330 330 332 334 339 337 336 334 333 334 334 332 330 329 331 331 342
302 302 301 301 302 306 312 313 313 315 317 319 321 323 324 322 323 324 321 324 322 322 324 324 325 325 330 331 332 335 337 338 343 338 334 333 336 333 335 332 331 332 340 342
301 301 300 299 300 302 306 310 309 314 316 317 319 321 321 323 324 324 324 322 325 325 327 328 327 327 330 333 334 335 342 345 340 339 338 338 337 338 338 338 333 332 348 342
299 298 297 298 299 299 304 307 308 313 317 317 321 322 322 325 325 323 324 323 323 325 326 328 329 328 330 331 332 334 338 341 339 339 338 336 340 339 336 340 334 335 343 347
296 295 297 299 299 298 303 307 305 309 314 316 318 319 321 325 325 325 323 323 324 324 326 327 331 332 330 329 330 332 333 342 338 341 337 337 337 339 339 339 337 344 343 349
296 297 298 298 298 298 303 305 305 307 310 313 316 317 320 320 322 327 326 325 324 323 324 327 327 328 330 331 331 333 334 337 337 333 336 336 339 340 338 337 345 344 347 346
298 297 298 297 295 298 296 304 305 304 307 309 311 313 314 317 320 325 325 328 326 326 323 324 324 327 329 335 336 338 336 338 335 336 337 337 337 336 336 347 344 346 346 345
295 297 297 297 296 296 295 304 304 303 303 307 308 307 309 310 315 318 322 322 326 326 328 327 329 332 332 338 335 334 338 339 340 343 345 343 346 346 345 344 343 346 345 342
294 295 295 295 295 295 295 299 301 303 306 309 310 311 314 313 312 313 314 319 323 325 326 325 327 333 330 338 335 337 337 335 341 338 338 343 342 342 342 342 341 342 341 339
294 294 294 294 294 294 294 300 301 302 306 310 313 313 313 313 314 315 314 315 318 322 322 323 324 326 326 329 331 330 332 334 334 336 339 333 339 340 341 341 340 339 337 337
293 294 294 294 294 295 298 301 302 302 304 309 310 311 313 313 313 314 315 315 318 319 320 322 323 323 325 325 326 328 327 330 335 334 338 337 337 341 340 339 337 337 335 333
293 293 294 295 297 296 302 307 306 305 305 306 313 314 315 315 314 314 314 316 317 318 320 321 321 323 323 323 325 325 329 329 333 334 336 337 336 336 334 334 333 332 332 332
293 294 297 297 297 301 305 306 306 305 306 307 311 316 315 314 314 314 314 315 316 317 318 320 320 322 322 321 322 322 325 327 327 330 327 331 327 332 333 333 332 332 331 331
294 298 304 306 305 304 305 305 303 304 307 308 312 316 316 316 317 316 314 315 316 317 317 318 320 320 321 322 321 321 322 323 324 323 328 329 326 334 333 333 332 330 329 329
298 303 307 306 306 307 308 306 305 306 307 311 313 315 318 316 317 318 318 317 317 316 318 317 318 320 323 322 320 321 321 323 323 322 321 328 322 332 333 332 332 329 328 329
302 305 307 310 309 307 306 307 307 308 309 309 312 313 315 314 316 318 320 318 317 318 318 316 320 320 319 320 320 321 322 322 322 322 323 327 332 332 332 331 330 329 327 327
304 307 308 308 306 307 309 310 311 312 313 312 312 313 316 314 316 318 318 320 319 320 320 318 318 318 320 318 319 320 321 320 323 322 324 327 330 332 331 330 329 328 327 326
299 300 303 306 308 310 312 313 313 314 315 314 314 316 316 315 316 318 319 320 320 320 318 319 319 321 318 317 318 318 319 320 322 322 323 325 326 332 330 329 328 326 326 325
303 305 306 308 308 310 312 313 314 317 315 315 316 317 316 317 316 317 320 321 320 319 322 321 320 322 319 318 318 319 318 319 321 322 322 323 329 331 329 328 326 325 324 322
306 305 304 308 310 310 313 314 315 315 315 315 313 315 316 318 319 319 319 320 322 324 323 322 327 324 324 326 320 320 319 319 320 321 322 328 329 329 328 326 325 323 321 319
305 306 307 310 310 310 310 310 311 313 313 313 313 314 317 319 319 320 319 321 322 323 326 325 322 320 322 325 327 327 323 321 323 325 328 328 328 326 325 323 323 320 317 315
303 305 307 309 310 310 311 311 311 312 312 312 315 315 315 316 319 320 321 322 323 320 324 322 322 320 320 325 327 328 328 329 329 328 326 325 323 322 323 320 318 315 313 313
304 307 306 306 307 310 310 310 310 311 312 316 313 313 314 313 319 321 322 323 320 320 321 320 321 323 324 324 325 327 327 327 325 323 321 322 322 321 318 315 314 314 313 314

GFSNW_850_thetae_003.txt.gz
Theta_e
304 305 304 304 305 307 307 311 318 317 317 317 316 316 317 317 318 318 319 321 320 320 321 321 323 325 326 327 328 327 327 330 330 330 329 329 328 327 326 327 330 334 338 343
303 304 304 303 304 305 306 311 317 318 317 318 317 316 316 317 318 319 319 321 321 320 319 322 326 327 327 327 328 330 332 326 328 328 329 329 328 328 329 331 332 331 336 342
301 302 303 303 304 304 306 312 320 318 319 319 319 319 319 319 318 318 319 320 321 320 319 320 325 324 327 327 331 329 331 334 326 327 334 334 334 332 328 328 329 328 329 342
303 301 302 303 304 305 307 315 320 317 321 320 321 321 319 319 321 323 320 321 321 320 320 320 322 323 323 325 328 328 330 334 336 334 334 331 334 333 334 331 328 332 330 341
301 300 300 303 304 307 312 314 314 314 316 318 320 321 324 323 320 322 323 321 320 320 321 324 324 324 325 330 328 329 330 335 337 337 336 335 335 335 336 334 330 328 335 340
300 299 299 301 301 304 309 309 310 312 314 316 317 320 321 322 322 319 322 323 320 319 320 327 327 327 326 330 336 334 334 332 339 336 337 337 335 337 339 338 335 333 337 336
298 296 297 299 300 300 305 308 308 312 315 315 316 319 321 323 324 325 324 322 324 324 326 326 327 326 326 329 331 334 341 344 336 336 339 341 335 337 336 337 341 341 338 336
296 295 295 297 300 298 305 306 307 310 314 314 316 319 318 322 323 325 325 323 324 324 325 326 328 328 328 329 329 330 336 340 340 342 339 338 336 339 336 340 346 341 336 336
295 295 297 297 298 299 298 305 305 307 311 314 313 316 318 320 321 324 326 325 324 323 324 325 329 330 329 331 330 328 329 336 338 338 341 342 336 336 335 338 345 345 339 338
297 295 296 297 295 297 301 303 304 305 308 310 311 316 314 315 317 322 325 325 327 323 323 324 325 325 326 330 331 329 329 332 338 336 338 336 335 336 337 339 347 347 340 339
295 294 295 297 294 293 297 303 303 302 304 305 306 309 311 312 316 322 321 326 325 326 325 323 324 324 325 328 330 332 331 329 329 334 335 334 348 343 346 348 347 348 347 345
294 294 294 294 293 292 296 302 302 300 301 304 307 307 308 307 309 312 319 321 322 327 328 326 327 328 333 337 337 338 340 339 342 339 343 342 343 347 345 347 344 344 345 341
294 294 294 294 294 293 295 295 300 301 303 306 308 308 312 311 310 310 311 319 321 321 321 325 325 332 327 335 335 337 332 335 339 339 338 338 337 340 341 345 343 341 340 340
293 293 293 294 294 295 295 297 301 301 303 307 312 312 312 314 314 313 313 313 315 316 320 322 321 325 326 328 332 330 331 333 334 336 335 335 333 339 336 332 339 338 338 338
293 293 293 294 295 296 296 304 302 302 302 306 307 310 313 313 313 313 314 314 315 316 320 319 323 324 325 325 325 328 328 332 333 334 336 332 337 332 336 336 335 336 336 335
293 293 294 295 298 297 305 307 305 304 304 305 308 310 313 314 313 313 313 314 315 317 318 319 321 324 323 324 324 330 332 332 332 332 333 336 335 335 333 333 333 333 332 333
293 294 298 300 297 300 305 307 306 305 305 305 308 313 316 314 314 314 314 314 315 317 317 319 320 321 323 322 322 322 322 326 329 328 330 330 330 328 332 332 331 332 331 331
294 299 306 306 304 304 306 307 304 303 305 306 309 315 316 316 316 317 314 314 315 316 317 317 319 320 322 322 321 320 323 325 326 324 325 330 331 333 333 332 332 331 330 329
299 304 307 306 306 307 308 307 306 305 307 309 313 314 317 315 316 318 319 318 318 316 318 317 318 320 323 322 320 321 320 321 322 323 322 328 329 329 333 331 330 329 329 328
303 306 307 309 308 306 306 307 308 308 308 308 310 312 314 315 315 318 319 318 320 319 318 317 317 316 317 319 319 319 321 320 322 324 325 325 325 330 331 331 330 329 328 328
305 306 308 308 307 307 309 310 311 312 312 312 312 312 315 315 317 318 317 320 321 320 319 319 319 318 318 317 317 319 320 319 321 321 322 326 328 326 323 321 323 328 326 327
300 303 304 307 308 309 311 314 313 314 316 313 314 313 316 316 316 318 318 320 320 320 319 321 320 320 318 319 319 318 319 321 319 318 321 326 328 327 326 329 329 329 326 326
304 305 306 308 309 307 312 314 315 317 315 316 315 317 317 316 316 316 320 321 321 320 322 321 324 322 322 324 327 323 319 321 320 319 321 322 329 328 329 327 327 326 325 325
306 306 303 308 309 309 312 314 314 313 314 314 313 314 317 316 319 319 318 320 321 324 324 324 323 323 322 321 322 325 324 319 320 319 320 322 329 328 327 327 326 324 324 324
306 307 307 309 309 311 311 311 312 313 313 312 313 314 315 319 319 320 319 320 322 323 322 322 322 321 318 319 320 324 324 324 320 318 323 326 327 327 327 325 324 323 322 321
304 305 307 309 311 311 311 312 311 312 312 312 315 315 313 315 317 320 320 321 322 319 319 319 320 319 320 319 321 324 321 322 325 327 326 325 325 325 325 323 322 321 321 318
304 306 307 307 309 311 310 310 311 312 312 316 314 312 313 312 317 320 321 321 318 317 317 317 318 318 320 320 322 324 324 325 324 325 325 324 324 324 323 321 319 319 317 313

GFSNW_850_thetae_006.txt.gz
Theta_e
301 303 304 304 305 305 307 311 312 316 316 314 311 311 315 316 316 316 316 317 316 317 318 317 318 320 322 324 323 323 322 321 324 325 326 327 324 324 320 321 322 327 331 339
301 301 302 304 304 305 306 308 315 316 316 312 310 311 314 315 315 315 316 316 318 318 317 317 319 321 323 322 328 322 322 321 324 324 323 325 327 324 323 320 321 324 326 334
300 300 301 304 304 305 307 312 314 317 317 317 315 316 316 317 318 317 317 316 316 316 318 315 316 318 320 321 324 328 328 320 322 324 324 328 331 331 328 324 324 323 325 338
300 300 300 303 304 309 312 314 314 314 313 314 314 317 319 318 317 318 319 318 316 317 318 317 316 316 318 321 325 325 324 326 330 328 332 334 334 332 333 330 326 326 326 339
299 299 299 301 303 310 313 312 311 312 312 313 312 315 319 321 320 319 317 317 319 317 315 316 317 317 319 323 327 327 322 323 333 333 333 334 335 334 335 335 335 327 336 341
296 296 297 299 302 303 308 307 308 310 311 308 310 312 318 320 321 323 324 323 318 318 316 317 324 326 323 323 329 329 333 325 328 332 333 334 333 333 335 335 334 331 335 335
295 295 295 297 300 299 306 307 308 310 311 311 312 314 318 318 321 322 324 324 322 324 324 325 325 326 324 325 324 328 333 334 328 329 330 335 331 333 333 336 346 337 334 335
295 295 296 296 299 298 301 306 307 308 307 311 312 312 315 316 316 320 322 324 324 324 323 320 321 321 320 324 325 326 329 332 335 333 332 332 334 334 335 339 348 339 338 338
298 294 296 296 297 298 302 305 305 306 307 308 310 312 313 312 312 316 322 322 324 323 316 319 323 325 323 325 326 324 323 328 332 333 337 338 332 332 335 333 343 341 337 346
295 294 294 295 294 296 302 304 304 303 305 307 310 310 309 313 313 316 320 318 324 325 316 319 320 322 323 324 328 326 321 325 329 333 335 332 342 345 338 331 329 342 337 339
294 295 294 294 293 293 297 302 302 301 302 303 304 304 308 311 313 315 316 321 320 323 323 318 318 320 319 322 328 335 324 323 327 329 333 334 339 345 344 341 346 342 338 339
294 294 295 294 294 293 296 302 302 301 300 302 304 305 308 309 310 309 314 319 319 324 320 322 321 328 325 328 333 329 333 330 333 330 329 338 337 340 344 344 344 343 342 342
293 293 293 294 294 294 295 296 299 301 301 304 307 307 307 309 310 308 309 318 319 320 317 320 319 325 322 328 330 331 329 332 332 333 333 335 336 341 342 341 341 343 341 341
293 293 293 294 294 295 295 297 300 301 301 302 308 311 311 311 312 310 310 311 315 314 318 319 317 320 322 323 325 325 326 329 329 331 332 334 336 334 333 330 331 334 339 338
293 293 293 294 295 297 301 304 303 303 302 302 305 308 312 313 313 313 312 312 314 314 316 318 316 319 321 319 319 325 325 326 329 331 334 332 333 336 333 332 336 334 335 338
293 293 294 297 298 297 305 306 305 304 303 304 302 308 312 313 313 313 313 313 313 315 316 318 317 316 321 318 321 328 330 329 331 332 334 334 332 332 335 336 335 336 336 336
293 294 298 304 300 300 304 307 306 305 304 304 305 305 314 316 315 314 314 313 313 315 316 317 317 321 321 316 318 324 328 328 328 329 329 331 332 332 332 332 333 333 333 333
294 298 306 305 304 304 306 307 305 304 305 305 305 307 314 315 316 316 314 313 314 314 315 317 316 318 319 317 317 320 321 327 326 323 326 330 332 331 332 332 332 331 331 331
299 304 306 306 307 307 308 308 306 304 306 308 310 310 313 314 315 317 317 317 313 315 313 314 315 313 316 316 318 320 322 323 322 323 323 325 331 332 332 331 331 330 330 329
303 306 308 310 308 307 306 307 307 307 306 306 307 310 309 313 315 314 315 316 315 314 313 316 312 312 316 318 319 318 318 319 320 322 325 324 327 328 332 331 330 329 328 327
305 306 308 307 307 307 308 309 308 310 311 309 310 311 310 315 313 312 315 313 314 316 314 314 314 312 313 316 315 316 317 318 319 319 322 323 322 324 329 330 330 328 328 327
300 304 304 306 307 308 309 309 310 310 313 312 312 314 315 316 316 315 315 316 314 316 315 317 315 318 322 321 322 324 323 319 319 319 320 320 324 326 328 330 328 328 328 327
303 304 305 307 308 302 311 312 314 316 315 315 314 315 315 316 316 315 314 317 317 316 317 319 320 320 320 319 319 322 323 322 320 319 319 319 325 325 324 322 325 327 327 327
305 306 296 300 301 305 310 313 311 312 313 312 313 313 314 315 314 315 317 315 317 319 322 323 320 320 319 319 320 320 323 324 321 320 320 319 323 326 325 323 324 326 326 326
305 307 300 305 307 309 310 311 312 312 312 312 312 314 315 313 315 315 317 318 321 320 316 316 318 318 317 316 319 319 322 322 322 322 320 320 324 325 324 324 324 326 325 325
305 305 305 306 308 309 310 311 311 311 311 312 314 311 311 314 314 317 319 320 321 319 318 316 315 316 316 317 319 320 322 320 324 321 320 320 325 322 323 324 324 324 323 324
304 304 306 306 306 310 310 311 312 311 311 311 311 310 311 312 315 317 319 318 316 315 314 314 315 315 316 319 322 323 319 318 322 325 325 324 324 324 324 323 321 321 320 321

GFSNW_850_thetae_009.txt.gz
Theta_e
300 300 301 304 306 306 306 309 312 312 307 310 308 310 313 314 314 313 314 314 315 316 316 316 317 317 320 320 321 323 320 319 323 322 323 324 322 321 318 321 322 322 326 329
300 300 300 303 305 306 307 309 315 313 312 309 308 310 313 314 313 314 314 315 316 315 316 315 315 318 320 319 320 320 319 319 321 321 321 323 326 323 318 317 316 324 325 324
299 299 300 301 304 309 312 314 313 315 315 314 313 316 317 317 318 316 315 314 315 315 315 313 316 317 317 318 320 325 322 316 319 322 322 325 331 331 324 320 322 321 321 324
297 298 299 300 303 312 314 314 311 311 312 313 312 314 318 320 319 318 317 317 316 317 315 316 315 316 316 318 324 325 320 323 322 323 324 331 332 333 329 326 323 326 326 327
295 296 297 299 302 306 312 312 311 310 310 311 309 310 315 318 320 319 318 321 323 320 314 314 316 317 318 318 322 326 324 321 330 330 331 333 333 332 333 333 332 327 328 328
295 295 296 298 301 304 306 307 307 310 309 308 309 311 316 318 319 321 322 322 321 319 320 322 319 317 322 321 324 326 330 323 324 327 331 330 327 332 334 334 335 333 334 331
296 297 296 297 300 300 305 306 308 310 307 309 311 313 313 315 318 320 321 323 322 322 324 323 322 321 321 319 320 325 330 328 324 327 327 331 325 328 332 339 344 337 333 335
298 295 295 296 298 299 301 304 306 307 306 309 310 311 312 312 314 316 320 322 322 323 321 318 319 318 319 321 320 322 324 328 332 330 328 328 332 331 334 335 344 333 335 337
295 296 295 295 295 298 302 303 304 305 306 305 309 309 312 310 310 313 320 320 323 325 313 317 321 320 319 322 324 320 324 324 329 331 334 334 329 337 342 335 337 334 336 339
295 295 295 296 294 295 301 303 303 302 304 305 307 308 308 311 311 313 316 315 321 324 313 317 318 320 321 324 323 322 319 321 323 331 333 331 339 340 341 333 330 337 343 342
294 294 295 295 295 293 297 302 302 300 301 301 302 305 307 308 310 312 313 318 318 321 322 319 316 317 317 321 332 334 323 322 324 326 331 334 337 339 337 337 341 337 343 342
294 294 294 294 295 294 294 301 301 301 300 300 301 303 304 306 306 309 308 317 318 321 316 317 318 325 323 325 330 327 331 328 327 325 328 335 336 339 342 343 340 337 339 341
296 294 293 294 294 294 295 296 296 299 301 303 306 309 308 306 307 307 306 315 319 319 317 318 317 319 319 326 326 328 326 329 331 329 332 334 336 339 341 343 342 340 337 339
295 293 293 293 294 295 296 300 299 301 301 300 307 310 309 309 311 310 309 315 315 315 317 318 316 315 318 320 321 323 323 327 327 329 331 333 334 334 338 340 341 341 340 341
293 293 293 294 296 297 302 304 303 303 302 301 304 308 311 311 312 312 310 309 309 310 315 317 318 315 317 317 316 322 323 324 327 329 330 330 333 332 332 333 335 337 336 336
293 293 294 297 299 296 305 305 305 304 303 303 301 306 313 315 313 313 313 312 310 312 314 315 317 317 319 319 317 323 329 329 330 331 332 333 334 334 333 334 335 335 336 336
293 294 298 305 304 299 304 306 306 304 303 304 304 304 313 315 315 313 312 312 312 314 315 315 316 320 320 318 319 319 326 328 329 329 330 331 331 331 334 335 335 335 335 335
294 297 304 304 303 303 306 306 305 304 304 305 304 305 311 314 315 315 313 313 313 313 314 315 314 316 319 318 318 319 319 321 328 328 327 327 328 330 332 332 333 333 333 332
298 303 306 306 307 307 308 308 306 303 305 306 308 309 313 313 314 315 317 315 310 312 311 313 313 311 316 317 318 319 318 322 325 323 323 324 331 331 332 332 332 332 331 330
303 306 307 309 307 307 307 306 306 306 306 306 304 307 309 311 314 312 313 314 313 314 312 313 310 311 314 319 318 318 318 321 319 320 321 322 325 330 331 331 331 331 329 329
305 306 307 306 307 306 307 308 308 308 310 308 308 309 307 313 312 310 313 312 312 317 315 312 311 315 319 319 320 321 317 317 317 318 318 319 321 323 325 330 330 330 329 327
301 304 304 305 306 307 308 309 309 308 312 311 311 313 313 315 315 314 313 314 312 316 313 318 317 319 319 318 318 319 322 323 318 317 319 319 322 322 321 324 329 329 328 326
300 303 305 306 307 301 309 312 314 314 314 313 314 314 314 315 316 314 312 316 316 315 316 319 321 317 316 318 316 317 319 322 323 321 318 319 320 320 324 326 327 326 325 327
304 305 295 299 299 303 307 310 309 312 313 313 312 312 313 314 311 314 317 315 315 317 320 319 316 317 315 315 315 316 319 320 322 322 319 319 319 320 324 325 325 324 325 326
304 306 300 303 305 308 309 309 310 311 311 311 312 312 312 311 313 313 316 317 320 319 317 316 317 315 314 315 316 317 319 320 321 323 320 320 320 324 324 323 324 324 323 325
304 305 303 305 305 307 309 309 311 311 311 312 312 308 309 313 313 315 317 319 321 318 316 315 314 314 314 315 316 319 321 321 321 322 320 319 322 324 323 323 323 323 324 325
303 303 304 304 304 304 309 311 312 312 311 309 308 307 311 312 314 315 317 318 315 313 313 313 313 314 315 317 319 321 320 320 321 321 321 324 321 320 320 321 322 323 324 324

GFSNW_850_thetae_015.txt.gz
Theta_e
300 300 301 301 304 307 308 313 315 309 309 313 310 315 314 313 314 312 314 315 317 318 317 319 319 320 320 318 322 324 325 327 328 326 324 325 326 328 330 330 332 329 331 330
299 299 300 301 303 307 313 314 311 310 312 312 314 311 313 313 315 316 316 316 316 316 318 321 318 318 319 317 321 325 324 328 328 327 325 325 328 326 327 329 331 336 333 331
298 298 299 301 302 306 313 314 315 311 313 312 314 318 317 316 318 317 317 317 318 319 319 317 319 319 318 317 321 325 323 327 331 326 326 328 331 327 325 330 332 333 331 332
298 297 297 299 302 305 311 313 313 311 314 314 314 315 318 320 321 320 320 318 324 324 322 319 319 318 319 319 323 324 327 332 327 327 324 324 329 333 326 331 335 334 336 332
298 297 297 298 301 304 308 311 312 309 310 309 312 314 319 320 320 321 322 323 324 324 323 319 322 323 322 321 324 329 328 333 330 332 331 325 326 328 332 331 329 331 333 335
295 296 296 297 300 304 305 306 307 308 307 312 313 316 318 319 319 320 321 321 324 324 322 322 323 323 323 322 322 326 333 334 333 330 332 333 334 332 334 334 334 335 337 338
295 295 295 296 299 300 303 305 307 309 309 311 313 314 314 317 316 319 318 319 324 322 320 322 320 320 322 322 322 319 331 336 332 331 334 334 330 331 333 335 339 338 342 339
295 295 295 294 297 299 301 301 304 307 309 309 310 311 313 314 313 315 317 318 321 319 322 323 325 324 324 325 323 323 325 334 337 335 334 331 334 339 342 340 340 342 339 339
295 295 295 295 294 297 300 301 302 303 307 307 308 310 311 314 315 316 317 317 316 321 321 322 327 324 324 324 325 324 326 330 334 336 334 332 333 341 341 342 336 338 339 340
295 295 295 295 295 293 297 301 301 300 303 302 307 310 312 309 312 314 314 313 320 321 322 324 324 324 322 324 327 328 328 330 330 334 338 336 332 340 339 338 336 341 340 340
296 297 294 294 295 295 294 297 299 300 300 300 301 306 307 309 310 313 312 316 319 322 326 324 322 322 323 329 331 329 328 328 327 331 334 337 338 341 339 343 344 341 342 341
297 296 294 294 294 295 295 296 298 298 299 300 300 301 301 303 307 307 307 315 318 322 323 322 323 327 327 331 333 331 334 331 329 330 330 336 337 339 339 339 340 341 342 339
295 294 294 294 294 295 297 297 297 298 300 302 304 307 306 304 303 305 307 308 317 318 317 320 322 325 323 333 332 332 332 332 339 338 336 337 337 338 337 338 341 340 340 339
294 294 293 294 295 298 298 302 301 302 302 302 306 307 306 307 306 306 305 309 314 314 314 320 320 321 318 324 324 328 328 330 335 337 335 335 336 336 336 337 337 337 338 336
294 294 293 294 298 298 302 303 303 303 302 304 305 308 309 310 309 309 308 306 307 308 312 319 321 319 319 320 321 324 326 330 336 337 332 335 335 333 334 337 337 335 336 336
294 294 293 297 303 299 304 305 304 303 302 302 307 306 310 313 314 311 310 308 306 307 313 316 316 316 321 325 326 322 323 322 327 330 330 332 332 334 333 332 334 336 336 337
294 293 295 302 303 302 305 305 304 304 303 303 307 310 311 312 312 309 309 307 307 309 313 315 315 317 317 322 324 322 322 320 319 324 328 332 332 332 332 334 334 334 334 334
293 294 300 303 302 304 306 306 305 304 304 305 307 311 312 312 314 315 309 310 309 311 314 314 315 316 319 319 320 320 320 319 319 320 322 325 324 328 330 330 333 333 334 333
298 299 305 305 306 307 305 306 305 304 304 306 307 312 316 311 313 313 315 311 314 311 314 314 314 315 319 319 320 320 320 320 318 317 322 325 324 325 328 329 330 332 332 333
303 305 306 307 306 306 306 305 305 304 305 305 306 305 312 310 314 314 315 314 319 319 316 312 315 314 318 319 318 318 319 320 319 321 325 325 322 324 326 326 330 331 332 332
304 305 306 305 306 306 306 307 308 308 308 307 308 307 311 310 316 316 313 317 317 320 318 317 317 318 318 316 317 317 317 318 320 320 320 319 318 319 319 322 329 330 331 330
303 304 304 305 306 306 308 309 309 310 313 312 312 312 311 312 314 316 315 317 316 318 317 319 318 319 317 316 315 315 315 317 319 320 319 318 317 316 317 319 323 328 329 330
299 302 304 305 305 307 308 310 311 313 312 313 314 313 313 313 314 315 316 317 318 315 319 320 320 317 316 316 315 315 315 315 317 319 320 319 316 316 315 318 321 324 325 327
302 303 301 305 306 307 309 311 311 311 312 312 311 312 313 313 316 316 317 316 316 319 320 320 316 314 314 314 314 315 315 315 316 317 319 321 321 318 316 318 320 321 323 326
304 304 304 305 305 306 306 307 308 310 311 310 312 312 312 315 316 316 317 318 318 319 316 312 312 312 313 315 314 314 315 316 317 317 319 321 321 318 318 319 323 325 325 325
303 303 305 304 305 306 306 308 309 310 311 310 310 312 313 313 313 315 317 318 319 315 314 313 312 313 313 313 313 314 317 318 318 319 320 321 319 319 321 323 324 324 324 324
303 304 302 303 303 304 306 309 310 309 310 312 311 313 312 312 313 315 316 318 314 312 311 311 312 312 312 314 314 317 318 318 320 321 319 321 322 323 322 322 322 322 322 322

GFSNW_850_thetae_021.txt.gz
Theta_e
301 300 301 302 304 307 313 316 319 314 313 315 317 319 321 318 320 319 321 322 323 325 326 326 327 328 329 327 328 329 329 331 332 331 330 329 329 332 332 333 335 334 335 336
301 301 300 301 303 306 315 319 317 314 314 317 319 319 320 319 320 320 320 321 323 324 324 327 326 327 324 324 327 329 330 330 332 332 330 330 329 329 331 333 336 339 340 336
301 300 299 300 303 305 312 320 318 315 313 317 321 321 320 319 317 319 319 321 321 323 325 327 327 326 324 323 325 325 330 330 331 331 332 332 331 330 330 331 335 334 333 335
300 299 299 299 302 305 313 318 321 319 318 318 319 320 320 319 320 319 320 321 321 322 324 325 325 325 324 323 323 327 330 333 332 331 329 329 330 330 331 331 332 334 335 338
299 299 298 299 301 306 314 318 320 315 319 321 320 318 321 320 320 323 321 321 321 321 322 324 325 326 326 326 326 327 330 334 333 333 330 329 329 329 329 331 331 333 334 337
298 298 297 297 300 308 312 312 315 318 317 318 320 321 321 321 321 322 323 323 323 324 325 324 327 328 330 331 331 330 332 333 332 334 330 329 331 330 329 330 333 333 334 336
297 297 297 296 298 301 308 309 311 315 318 319 319 319 320 321 322 324 321 323 325 327 326 325 324 324 324 326 328 329 333 335 334 334 333 332 332 332 332 330 330 332 333 336
297 297 297 296 296 299 307 307 310 313 317 316 318 319 320 320 321 322 323 322 325 324 324 325 325 325 325 324 325 328 328 331 330 331 332 331 331 332 332 331 332 333 333 336
296 297 296 296 296 295 306 306 306 309 313 315 314 316 317 320 321 321 320 321 322 322 322 324 325 327 326 327 325 325 327 330 330 330 331 333 332 334 335 334 337 336 340 340
297 297 296 295 296 296 298 305 301 308 310 311 311 313 316 316 318 321 321 321 321 321 324 325 326 326 326 327 328 329 327 328 327 327 329 330 331 340 340 336 342 348 346 344
297 295 295 295 295 296 298 304 297 305 309 309 308 310 314 314 315 319 320 320 320 323 323 323 325 326 326 326 328 330 332 330 329 327 328 328 335 338 339 350 348 349 349 347
297 295 295 295 295 296 299 306 304 302 303 307 307 306 308 311 314 315 317 318 323 318 322 324 325 327 327 330 328 328 334 330 333 330 329 342 341 346 347 347 348 350 349 347
297 295 294 294 295 296 297 304 305 306 308 309 308 310 309 306 307 311 314 315 324 324 324 326 327 327 329 329 329 329 332 329 334 332 332 339 340 343 345 346 347 348 348 347
295 295 294 294 295 298 298 305 306 307 308 311 314 311 311 311 308 308 310 313 318 321 320 321 325 326 325 329 329 333 333 335 331 331 339 337 341 341 342 345 346 346 347 346
295 295 294 294 297 299 301 305 306 306 308 313 313 312 311 311 310 309 310 311 313 316 318 320 322 321 325 325 326 328 328 333 337 337 337 338 340 340 340 342 343 344 344 342
295 295 294 294 301 300 306 310 308 307 307 310 316 314 312 312 311 311 312 312 313 314 316 318 319 322 323 324 326 324 327 330 329 330 333 336 337 338 339 340 340 342 341 340
295 294 294 297 302 302 307 309 308 305 307 311 315 315 314 315 314 314 315 315 314 314 315 316 317 319 319 322 324 328 327 327 327 327 328 333 332 334 335 338 338 338 338 336
294 294 294 302 302 306 308 307 306 306 308 311 316 317 315 314 315 315 314 314 314 315 315 316 317 317 318 320 319 320 323 325 325 325 326 327 330 331 333 334 337 337 338 335
295 297 303 305 306 308 308 306 306 306 309 313 314 317 320 315 317 318 316 316 318 316 317 317 317 319 318 319 318 317 320 322 322 323 324 325 326 330 329 330 333 335 335 335
300 305 307 309 309 306 305 308 310 309 310 311 314 315 317 315 316 316 318 317 318 318 318 318 319 320 318 317 318 321 322 321 322 322 323 322 326 328 324 326 328 332 333 334
305 308 308 308 306 308 309 310 312 312 314 313 314 315 317 315 318 319 318 321 321 321 321 320 319 320 319 318 320 320 320 320 321 322 322 323 324 325 325 323 323 324 332 332
306 307 306 308 309 310 311 312 312 313 315 314 315 315 315 316 317 319 320 318 319 319 320 320 320 325 323 321 320 319 319 319 320 320 321 322 322 324 324 324 323 324 329 332
305 307 309 308 309 308 311 313 314 315 314 317 317 317 316 317 318 319 320 319 319 318 319 320 324 321 319 319 319 319 319 319 320 320 321 321 322 322 323 324 322 323 326 327
306 307 307 310 310 311 313 314 315 315 316 315 315 315 316 318 320 319 320 319 319 321 321 323 321 319 318 318 318 317 318 319 320 320 321 321 322 323 323 324 323 322 327 328
306 306 309 308 310 311 311 312 313 314 314 314 314 314 315 316 318 319 319 320 320 320 323 320 318 318 317 317 318 316 316 316 318 319 320 321 322 324 325 326 323 322 325 326
307 307 310 309 310 311 311 312 314 313 313 313 314 315 316 316 316 317 318 318 320 321 319 318 317 316 316 317 317 316 314 315 316 317 320 321 322 324 326 326 325 325 328 329
308 309 308 309 311 311 312 314 314 312 312 314 313 315 316 315 315 316 317 319 321 316 316 315 315 315 315 315 315 314 314 315 315 317 320 320 325 327 328 329 328 327 330 329

GFSNW_850_thetae_024.txt.gz
Theta_e
301 302 301 302 305 306 312 318 320 318 314 315 315 317 319 321 323 321 322 323 325 326 328 328 327 328 329 329 330 331 331 331 332 331 331 331 330 330 332 334 337 335 338 339
301 301 301 301 303 305 311 321 320 317 314 315 317 318 319 320 323 322 322 322 324 325 327 328 327 328 327 327 328 332 332 331 330 332 332 331 330 330 330 332 339 341 341 343
300 301 300 300 302 305 309 321 319 316 314 315 319 322 320 321 320 321 322 322 323 324 325 326 331 327 326 325 325 326 329 334 332 331 332 333 333 332 331 331 334 334 333 339
299 300 300 300 302 305 312 320 323 321 317 315 318 321 323 322 322 319 321 321 322 323 326 326 327 327 327 324 324 326 329 333 332 330 330 331 332 333 331 331 331 333 333 338
299 299 299 299 302 307 314 317 320 320 320 321 321 318 322 322 322 322 321 322 323 323 324 326 327 326 327 326 326 328 331 334 332 332 331 331 330 329 329 329 330 332 331 335
298 299 298 298 301 311 314 313 315 318 320 320 322 321 320 321 322 322 323 324 323 323 324 326 328 329 331 332 332 333 335 334 335 334 332 332 332 330 329 330 330 330 333 339
298 298 298 297 298 305 310 311 311 316 319 321 319 320 321 321 322 324 323 325 327 328 328 327 326 325 327 328 330 331 336 340 338 336 335 334 332 332 332 334 332 330 333 340
297 298 298 297 296 299 306 310 310 315 318 318 320 321 321 322 322 323 325 324 326 325 326 327 326 326 325 325 325 328 330 332 334 336 333 332 331 333 334 335 333 344 344 342
297 297 297 296 297 296 308 310 308 311 314 317 316 318 320 322 323 323 322 322 323 323 324 326 328 327 326 326 325 325 326 337 332 332 331 332 334 331 334 337 336 347 338 334
296 297 297 296 296 297 300 308 304 310 312 313 312 315 318 319 320 322 322 321 322 322 323 322 324 325 326 328 329 330 329 330 330 330 329 329 331 330 338 346 351 348 341 335
296 296 296 296 296 297 299 308 306 305 310 312 311 311 314 317 318 321 320 323 322 323 322 323 324 325 327 328 331 331 332 331 329 331 331 329 327 335 344 351 349 349 348 346
295 296 296 296 296 296 304 309 308 307 305 308 309 308 309 311 315 316 318 320 321 324 323 324 323 324 327 334 329 330 331 334 333 332 332 342 344 348 348 348 349 349 349 348
295 295 295 295 295 296 298 301 308 309 310 311 310 311 311 308 308 313 316 319 322 326 327 327 329 327 327 331 330 331 330 332 335 335 337 342 343 344 344 346 348 347 347 347
295 295 295 295 295 298 297 304 308 309 310 312 314 314 313 312 310 309 311 314 316 319 323 323 326 329 327 329 330 330 333 333 334 334 339 341 342 341 341 343 345 347 348 348
295 295 295 295 295 300 299 304 309 309 310 314 315 314 313 313 312 311 310 312 315 317 318 318 321 321 323 325 327 328 332 334 340 343 337 340 340 340 340 341 341 343 345 345
295 295 295 295 299 301 308 312 310 310 309 311 316 316 315 314 312 311 311 313 315 314 316 318 319 319 324 325 326 326 327 329 331 332 331 332 336 336 338 338 339 342 342 342
295 295 295 295 302 301 308 311 310 309 308 312 315 316 315 314 313 313 314 314 314 315 315 316 318 319 320 321 324 326 327 328 328 328 329 331 334 333 333 334 337 339 339 337
295 295 295 301 302 306 308 309 307 306 310 312 317 319 317 316 315 316 315 316 315 315 315 316 317 317 319 321 321 320 323 324 326 325 326 327 327 330 331 332 333 337 339 337
295 296 302 303 306 309 309 307 306 307 311 314 314 319 320 316 316 318 317 316 318 316 317 317 317 319 320 320 320 319 319 322 323 323 323 325 325 326 329 329 331 333 337 337
298 304 307 310 310 307 306 310 312 311 312 312 314 316 321 318 317 318 318 318 318 319 318 318 319 319 318 318 318 320 323 323 322 322 321 323 324 327 328 327 328 329 331 335
304 308 309 310 306 309 311 311 312 313 314 313 312 315 318 317 318 321 319 322 321 322 320 320 322 320 322 320 322 322 321 320 320 320 321 321 321 322 326 326 326 325 326 328
306 307 308 309 310 311 312 313 313 314 315 315 315 316 316 317 318 320 319 321 320 322 321 322 321 325 324 322 322 322 322 321 322 321 320 320 321 321 323 324 324 325 325 325
306 307 309 309 310 309 312 313 315 315 315 316 317 318 317 318 317 319 321 321 321 319 321 320 326 323 323 322 321 320 320 320 320 320 321 321 320 321 322 323 324 325 325 328
308 309 309 311 312 312 313 314 316 316 317 317 316 317 317 318 320 320 321 320 319 322 320 322 324 321 320 320 320 320 319 318 319 319 320 321 322 321 322 323 323 324 325 324
308 308 309 309 311 313 313 313 314 315 315 315 316 316 316 318 319 319 320 320 321 321 324 323 320 320 319 319 319 319 318 318 318 317 318 320 320 322 323 324 325 325 324 327
308 308 310 311 312 312 312 313 315 314 314 315 314 316 317 318 317 318 319 319 321 323 321 317 318 318 319 318 318 317 318 318 317 317 317 319 321 322 324 324 325 327 325 324
308 309 310 311 312 312 313 315 315 314 314 316 315 317 318 317 317 317 318 321 319 318 317 316 317 317 316 314 315 316 316 316 316 316 317 318 321 323 323 324 318 325 326 327

GFSNW_850_thetae_027.txt.gz
Theta_e
301 301 302 302 304 306 307 311 322 319 316 315 316 314 317 318 319 320 321 322 323 325 326 328 325 326 329 328 329 329 328 328 330 331 330 329 328 327 330 331 331 332 331 337
300 301 301 301 302 305 306 316 322 317 315 314 314 316 316 316 317 319 322 322 322 322 326 328 331 329 325 326 328 330 329 328 328 327 328 329 332 331 329 327 329 328 332 336
300 301 301 300 300 303 306 316 323 316 315 314 315 318 321 321 319 320 321 322 322 322 325 326 328 328 326 325 326 326 330 333 334 327 333 331 332 331 331 328 329 328 330 336
300 301 302 301 301 303 309 318 323 319 317 315 315 316 320 321 321 321 320 322 322 322 326 327 326 327 327 325 324 326 329 331 332 330 329 328 329 331 332 330 330 330 327 337
299 300 301 301 301 308 314 316 315 315 318 321 317 320 317 322 322 322 320 322 322 322 325 325 331 331 332 333 327 326 326 331 331 332 331 330 331 330 331 329 328 328 334 340
299 299 300 300 301 305 314 312 311 314 319 320 321 321 322 320 321 322 323 322 324 323 329 328 327 327 328 332 332 334 330 331 330 330 332 331 331 331 332 332 333 333 329 336
298 299 299 298 298 305 308 311 310 314 318 318 319 320 321 321 322 325 326 326 329 326 325 327 327 326 325 326 330 330 335 337 335 336 336 338 331 331 332 334 342 340 337 336
297 298 299 297 297 299 309 311 310 312 315 316 317 318 320 322 322 323 325 325 324 323 325 328 327 325 326 326 325 329 330 331 330 333 334 333 332 333 334 337 344 340 339 338
297 298 298 297 297 297 307 310 307 309 313 315 314 314 317 320 322 323 322 324 322 321 323 326 330 328 327 327 325 323 324 331 331 330 335 334 331 335 334 335 348 337 335 338
296 297 297 297 297 298 303 308 307 307 311 313 313 313 314 317 318 320 323 322 323 322 322 323 324 325 325 327 329 328 324 327 330 329 331 328 328 327 332 333 341 336 336 335
296 297 297 297 296 297 302 308 308 307 307 309 311 311 311 312 316 319 319 323 323 323 322 322 323 323 324 325 325 333 329 329 325 328 330 330 342 342 348 336 334 344 337 333
296 296 296 296 296 297 304 310 309 308 310 307 308 309 307 309 312 315 315 320 322 329 329 325 326 323 324 327 329 330 330 328 327 325 327 348 347 347 347 348 348 348 347 349
296 296 296 296 296 297 298 305 308 309 311 313 313 310 311 310 308 310 314 318 317 318 321 327 328 330 326 329 333 332 332 334 332 334 339 339 341 342 344 346 347 347 348 346
296 296 296 296 296 297 298 299 308 310 310 312 315 315 314 314 312 309 310 312 313 316 318 323 324 325 325 324 329 329 331 334 337 340 337 338 334 332 335 341 343 345 345 344
296 296 296 296 296 299 299 304 309 310 310 312 313 315 314 314 312 312 310 310 312 314 318 320 320 320 323 324 325 329 327 333 336 337 334 338 338 335 328 339 342 343 344 343
296 295 296 296 296 300 311 312 310 310 310 312 315 316 314 314 313 312 311 311 313 314 315 316 318 318 322 324 326 330 329 330 332 332 330 329 334 337 335 338 339 341 340 338
295 295 296 295 299 300 307 312 312 310 308 312 315 317 316 315 313 312 311 313 314 314 314 314 316 317 320 322 322 326 327 328 327 327 326 329 332 331 330 331 339 338 338 335
295 296 295 298 302 306 309 309 307 305 307 312 316 319 317 315 314 315 314 315 315 315 316 316 317 317 319 321 321 319 322 323 325 325 325 326 326 329 330 330 331 335 338 336
295 295 301 303 305 309 310 308 306 306 311 313 315 318 321 319 316 317 316 316 318 316 316 317 317 318 321 321 318 318 320 323 323 323 322 322 323 325 325 328 331 331 334 336
296 304 307 309 310 307 306 311 312 311 312 312 314 315 320 316 318 319 320 319 319 320 319 317 317 318 317 317 319 321 322 322 322 321 321 322 323 322 324 328 327 328 327 331
304 307 309 310 307 309 311 312 314 313 314 313 312 312 319 317 320 321 319 322 322 322 322 321 322 322 324 323 322 322 322 321 320 320 320 321 320 321 322 322 324 326 327 325
306 306 308 309 310 311 312 314 313 314 315 315 315 314 318 318 319 319 319 321 321 323 321 324 324 325 324 323 322 322 322 322 322 321 321 321 321 321 321 322 323 323 324 326
305 306 309 309 310 310 311 313 315 316 315 317 318 320 318 318 319 319 321 320 322 320 324 323 325 323 323 322 322 321 320 320 320 320 320 320 321 321 322 322 323 324 323 326
307 309 304 310 311 311 313 315 317 316 317 317 317 318 318 318 320 320 321 321 322 322 323 324 324 320 320 320 320 320 320 319 318 318 318 318 320 320 321 322 324 324 325 322
308 310 309 310 310 312 315 315 315 316 316 316 316 317 317 319 320 320 321 322 322 323 324 323 321 320 320 319 319 318 318 319 318 318 318 318 317 317 320 320 321 324 325 325
309 309 310 311 312 313 313 313 315 315 315 315 315 317 319 318 319 319 320 320 322 320 319 318 318 319 318 317 315 314 314 315 316 316 317 317 316 317 319 321 321 321 321 323
308 309 310 310 312 314 315 315 315 315 315 318 316 318 318 318 319 318 320 322 318 318 317 317 317 316 315 313 314 315 315 316 316 316 316 316 316 317 319 320 321 321 321 321

GFSNW_850_thetae_030.txt.gz
Theta_e
300 301 303 303 304 306 306 309 317 316 313 313 311 309 313 315 315 316 316 318 320 321 323 325 328 319 321 326 326 325 321 322 324 329 327 327 324 325 320 325 325 323 324 329
300 300 302 302 302 304 305 309 320 316 315 309 307 310 313 314 314 314 315 318 320 319 322 323 326 325 324 327 325 326 324 321 324 325 323 325 329 329 323 319 319 323 324 324
300 300 302 302 301 302 305 312 318 317 316 314 312 313 314 317 320 316 317 317 320 318 321 322 323 323 325 324 325 326 327 324 322 323 325 327 328 327 327 322 323 324 324 331
300 300 301 302 302 304 312 317 318 315 314 312 311 313 313 315 317 320 319 318 319 319 321 321 326 326 326 326 324 324 322 326 327 326 328 327 328 329 328 328 327 328 328 329
299 299 301 302 301 308 316 313 312 312 313 317 314 310 312 315 316 319 317 318 319 323 325 326 326 327 327 330 327 321 318 324 327 325 330 329 330 329 329 330 333 328 333 335
298 299 300 301 300 306 312 309 309 311 314 313 314 316 318 319 318 320 326 324 322 325 325 325 326 324 323 326 328 328 329 323 322 324 329 331 328 328 330 333 337 335 331 329
298 298 299 299 298 301 309 309 311 312 312 313 313 313 315 319 321 324 324 325 323 324 325 326 326 324 324 323 321 328 329 330 328 331 330 334 329 329 340 342 341 338 336 334
297 298 298 298 298 298 308 309 308 310 309 312 312 312 314 319 321 323 324 322 321 323 324 321 320 319 321 322 323 322 325 322 325 328 329 328 329 335 335 337 341 337 339 337
297 297 298 298 298 298 307 308 304 306 310 310 311 311 312 313 314 317 323 322 321 321 318 319 325 322 322 323 323 321 319 321 322 324 328 330 326 333 334 335 340 335 336 337
296 297 297 297 297 298 306 306 306 307 308 310 310 310 310 311 316 316 318 317 322 321 315 318 319 321 322 322 323 322 318 319 323 324 326 325 325 326 332 333 328 334 333 332
296 296 297 297 297 297 306 308 308 308 307 305 308 310 309 309 313 315 316 319 322 322 317 317 317 317 317 320 320 323 321 320 321 322 326 326 342 342 337 334 340 333 331 331
297 296 296 297 297 297 302 309 307 308 307 305 307 308 308 308 309 312 319 319 317 323 326 324 323 319 319 320 321 322 325 320 321 320 321 336 338 340 344 339 339 337 331 333
297 296 296 296 297 297 298 303 306 308 310 310 311 308 309 310 308 309 314 315 315 317 318 323 323 327 323 323 324 326 325 330 330 334 336 332 335 338 341 342 343 343 342 337
297 296 296 296 296 297 298 299 309 309 310 309 314 313 312 314 313 310 309 312 313 314 317 319 319 320 319 317 317 323 326 328 331 333 334 335 331 333 331 336 334 328 341 341
297 296 296 296 296 298 305 308 309 309 309 309 312 314 315 314 313 310 309 309 309 311 315 315 315 317 319 319 318 325 327 329 329 333 332 335 335 332 332 341 340 340 338 339
297 296 296 296 296 299 311 311 310 309 309 307 308 315 314 313 313 313 311 310 310 310 315 314 315 318 318 317 322 328 327 331 330 330 330 333 335 332 334 336 338 337 336 335
296 296 296 296 296 300 307 311 310 311 309 310 312 312 316 314 314 312 311 310 311 313 313 312 313 314 315 315 318 326 328 328 328 325 327 327 330 330 330 333 335 336 336 335
295 296 296 296 300 304 307 308 307 306 305 311 309 312 316 314 314 313 312 312 313 313 314 315 313 313 316 316 317 320 323 324 325 324 323 323 324 324 326 329 330 331 331 334
295 296 300 302 305 309 310 309 307 305 310 312 313 312 315 318 316 315 315 314 312 315 313 313 314 310 313 314 317 317 317 322 323 323 322 322 322 324 326 327 329 330 332 333
295 304 307 308 309 308 306 309 311 311 309 310 311 314 314 316 317 317 319 318 311 314 312 314 311 311 315 316 319 318 320 322 322 322 321 321 321 321 321 322 322 324 327 328
304 307 309 310 308 308 310 311 312 313 312 312 312 311 309 317 315 315 318 315 315 317 315 317 314 312 322 322 322 322 321 321 321 321 321 321 321 321 320 321 322 323 323 325
306 306 307 309 309 310 311 309 311 311 311 314 312 312 314 317 318 317 318 316 316 318 317 319 319 317 322 321 321 321 321 321 320 320 320 321 321 321 321 322 323 324 324 323
305 306 308 309 309 305 309 311 312 312 314 318 317 316 318 318 319 317 315 316 316 319 319 320 318 319 320 320 320 320 319 319 319 319 319 319 319 320 320 321 321 324 324 324
306 308 301 306 304 308 308 309 312 316 316 316 317 317 317 317 316 315 318 317 319 321 321 321 317 320 319 319 319 319 318 318 318 318 318 318 317 317 318 318 319 320 322 324
306 309 302 307 309 311 312 314 315 316 316 316 316 316 317 314 316 314 316 320 319 321 319 320 319 319 319 318 318 317 316 315 314 314 315 316 317 318 317 317 317 319 320 321
307 308 309 310 311 311 313 313 312 315 315 315 315 315 314 315 314 317 318 319 321 319 316 318 318 318 317 316 315 314 313 315 315 315 316 316 316 316 315 315 317 320 320 320
308 308 309 311 311 313 314 314 315 314 315 312 314 315 317 314 316 316 315 316 315 317 317 316 316 314 313 313 314 313 315 316 316 316 316 316 316 316 317 318 318 320 319 318

GFSNW_850_thetae_033.txt.gz
Theta_e
300 300 302 303 304 306 306 311 314 315 310 310 306 308 311 313 313 314 314 314 315 318 320 323 325 317 319 324 323 322 321 319 323 324 325 324 323 322 318 321 324 320 321 323
300 301 301 303 303 305 306 309 318 315 312 310 306 307 311 313 313 312 314 315 317 318 319 323 324 323 323 324 321 321 320 320 323 323 322 324 326 325 319 316 316 321 322 323
300 300 301 302 303 306 312 314 317 315 314 312 309 311 311 314 317 315 315 314 316 317 320 320 322 322 324 323 327 325 323 317 322 324 324 325 327 327 324 320 321 322 321 324
299 300 300 302 303 314 314 316 314 312 313 312 311 310 311 313 314 317 317 316 317 318 320 321 325 326 326 326 326 321 320 325 325 323 325 326 327 329 327 327 324 327 326 326
299 300 300 301 302 311 314 312 310 311 312 314 313 311 311 312 312 314 317 316 322 322 325 324 325 324 325 328 325 320 317 324 324 325 328 328 329 327 328 331 335 329 332 332
298 299 299 300 300 307 310 308 309 310 312 311 311 312 312 314 316 318 325 324 323 324 323 324 325 324 321 323 326 329 327 319 319 322 328 326 323 329 332 338 338 336 329 329
298 298 299 299 298 303 308 307 310 311 312 310 311 312 313 315 316 322 322 323 322 324 324 325 324 321 321 321 319 324 326 327 324 327 326 324 324 336 335 340 340 336 333 332
298 298 298 299 297 299 308 306 306 309 308 310 311 311 311 315 318 321 321 321 320 322 323 319 319 319 320 321 320 321 320 321 323 326 326 325 334 338 333 334 340 337 335 334
297 297 298 298 297 299 308 305 304 305 308 310 310 310 310 311 313 315 320 321 320 320 315 318 320 320 320 321 322 316 318 317 322 322 326 328 325 330 335 329 328 337 336 334
297 297 297 298 297 300 307 307 306 307 307 308 309 309 309 309 311 313 316 316 323 319 314 317 319 321 320 322 321 320 315 316 320 324 324 323 322 332 332 326 322 336 336 334
297 297 297 297 298 297 306 308 307 307 307 305 306 309 308 308 310 311 315 318 322 323 316 316 316 316 316 318 319 321 319 318 318 319 322 323 338 342 332 327 338 335 333 332
297 297 296 297 297 297 299 305 307 305 306 305 305 306 308 307 308 308 316 317 317 319 323 321 319 318 316 317 319 320 324 319 319 318 319 334 337 340 340 334 338 335 333 331
297 297 296 296 297 297 298 299 303 306 309 308 310 311 311 309 309 308 310 315 315 316 318 321 320 323 318 318 321 322 323 327 329 333 332 332 335 342 342 343 342 341 339 333
298 297 296 296 297 296 298 299 306 308 308 308 313 313 310 312 312 311 308 311 313 314 317 318 317 318 316 314 315 318 322 325 330 332 332 333 331 336 336 334 330 330 339 338
298 297 296 296 297 297 305 306 309 308 308 308 311 313 314 314 313 311 309 308 309 310 314 313 315 315 314 315 318 326 327 327 328 330 331 331 331 334 337 339 339 337 338 338
297 297 296 296 297 298 308 309 309 309 309 308 306 313 314 313 313 313 311 309 309 309 312 312 313 316 315 315 321 326 329 329 329 329 333 333 330 332 337 338 337 335 333 331
297 296 296 296 296 298 307 311 310 310 309 307 310 311 315 313 313 312 311 310 310 312 312 311 311 313 313 313 316 327 327 326 329 329 329 330 329 330 334 336 336 335 334 334
296 296 296 296 297 300 304 305 307 305 305 309 307 309 314 313 313 313 311 311 311 312 313 313 311 310 312 312 315 320 326 325 324 326 327 326 325 325 327 331 332 331 330 331
295 296 297 301 303 309 310 309 308 306 307 311 310 309 314 317 316 313 314 312 310 312 311 310 312 308 310 310 316 318 316 324 323 323 323 323 323 323 327 329 330 330 329 330
295 302 306 308 309 309 308 307 310 309 306 307 308 311 313 316 315 316 316 315 309 312 311 311 309 309 313 318 319 318 317 318 322 321 321 321 321 321 320 321 321 322 324 328
303 306 307 309 309 307 309 310 310 311 310 311 310 310 309 315 313 313 317 313 313 316 314 312 311 313 319 320 320 321 320 321 321 321 321 321 320 320 319 320 321 322 323 325
305 305 307 308 309 309 309 306 309 309 311 311 311 311 309 316 317 316 316 314 313 317 315 317 316 316 319 319 319 319 319 319 319 319 320 320 320 320 320 321 321 321 322 323
305 306 306 308 308 302 308 310 309 310 311 315 315 315 317 317 317 315 312 314 314 316 317 318 317 319 318 319 319 319 319 319 319 318 318 318 317 317 318 319 320 321 323 323
305 307 300 304 302 305 306 307 308 312 315 315 316 316 316 316 314 313 317 314 316 319 319 320 319 319 318 318 317 317 317 317 316 315 314 314 314 316 317 317 317 317 319 321
305 307 307 306 308 308 310 311 313 315 315 315 315 315 315 312 314 312 314 318 318 319 320 319 319 318 317 316 316 315 314 314 313 313 315 315 315 314 314 315 316 316 316 316
306 307 307 308 308 310 311 311 312 314 315 314 314 314 312 313 312 316 317 317 320 316 314 318 317 316 314 313 312 313 313 314 314 316 315 316 316 316 316 316 316 316 315 316
306 307 308 309 309 310 313 313 314 314 314 311 312 313 315 312 314 315 314 316 314 317 316 315 313 312 312 313 313 314 314 314 316 317 318 316 315 315 315 316 318 318 318 320

GFSNW_850_thetae_036.txt.gz
Theta_e
301 301 301 303 304 306 306 312 311 313 310 310 304 306 309 312 312 313 312 314 314 316 318 320 315 316 317 321 320 321 320 319 322 323 323 322 322 320 317 320 323 318 319 322
301 301 301 303 304 308 309 312 316 310 312 309 305 306 309 311 312 312 312 313 314 316 317 319 322 321 321 322 320 320 319 319 322 323 322 323 325 322 317 314 315 321 323 324
300 300 301 302 303 313 313 316 313 314 312 310 308 311 310 311 314 313 313 312 314 315 317 319 321 324 323 324 324 324 323 315 320 322 323 323 326 325 320 319 322 320 320 324
300 300 300 301 303 314 314 314 311 310 312 310 312 310 311 312 311 314 315 314 313 316 318 322 325 326 325 325 323 320 319 321 320 321 322 324 325 326 324 325 322 326 326 322
299 299 300 301 302 309 312 312 310 310 310 312 311 310 312 312 312 311 315 316 315 316 320 321 325 323 325 327 324 319 317 322 323 326 327 327 327 327 326 329 325 325 329 327
298 298 298 300 300 306 308 307 310 310 310 310 310 310 312 312 312 316 317 324 322 323 323 324 324 324 319 321 325 328 322 319 319 324 328 323 323 328 332 337 337 334 329 327
298 298 298 299 298 304 306 305 309 310 310 310 311 311 311 314 314 315 322 321 321 321 323 324 322 320 319 319 318 323 325 324 320 327 323 323 321 334 332 337 338 335 332 332
298 297 298 298 297 300 306 304 304 308 307 310 311 311 310 313 315 317 319 319 319 320 322 317 318 317 318 319 315 318 319 320 323 324 322 324 336 337 332 332 335 335 332 334
298 297 297 298 297 302 307 304 304 304 307 308 310 309 309 308 310 315 318 319 320 319 313 317 319 319 318 320 320 315 316 317 322 321 326 328 325 328 333 323 323 335 333 333
297 297 297 298 298 300 307 307 306 306 306 306 308 308 308 307 309 312 313 317 322 318 312 316 318 320 319 320 320 319 316 316 322 324 324 323 321 328 332 323 322 330 334 333
297 297 297 297 298 297 301 307 306 306 306 304 305 307 308 308 308 309 312 317 320 321 314 315 315 315 316 317 317 319 317 319 319 319 321 322 336 340 328 323 335 336 335 332
298 297 297 297 297 298 298 302 305 305 305 304 304 304 306 306 307 308 311 317 317 318 319 319 317 317 316 315 318 319 322 317 320 318 318 330 335 338 339 334 336 334 333 331
297 297 297 296 297 297 298 299 300 303 306 306 309 311 309 309 308 308 308 313 314 315 318 320 318 320 314 318 320 320 321 323 329 331 331 331 334 340 342 342 341 340 335 331
297 297 297 296 297 297 298 300 304 307 307 306 312 313 310 310 312 311 309 308 312 313 316 317 314 316 313 313 314 316 319 325 330 332 331 331 332 335 335 331 330 336 341 334
297 297 297 296 297 296 303 304 308 308 307 307 310 312 314 314 312 311 310 308 308 309 312 313 315 313 312 312 318 325 326 324 326 329 329 330 331 334 336 338 337 337 338 337
297 297 297 296 297 297 307 308 308 309 308 308 303 311 313 312 312 312 312 309 309 308 310 311 312 315 314 313 321 325 327 329 328 331 332 332 332 335 337 338 335 333 330 328
297 297 296 296 297 297 307 310 309 309 307 307 308 309 315 313 312 312 311 310 309 312 310 309 309 311 313 312 318 326 327 329 330 331 330 329 330 335 336 337 335 334 334 333
297 296 296 296 297 299 303 305 307 306 305 306 306 308 313 312 313 312 310 310 310 311 311 312 309 309 309 308 313 319 325 326 329 329 328 327 328 329 332 333 334 333 331 330
296 296 297 300 303 309 309 309 308 307 305 310 308 308 312 316 314 312 312 311 308 311 310 309 310 306 308 306 311 314 320 324 324 325 326 325 325 326 328 330 330 329 329 329
295 300 305 307 308 308 307 307 308 308 306 306 307 310 310 315 314 315 315 313 308 312 309 310 307 307 316 318 318 318 318 317 321 323 322 322 323 324 324 324 324 324 324 324
302 305 306 307 309 307 308 309 309 309 309 309 307 308 309 314 312 312 315 311 311 315 312 310 309 316 317 317 319 319 319 318 320 320 320 320 320 320 320 320 320 320 321 321
304 305 307 308 308 308 308 305 307 307 309 310 310 310 310 313 316 314 314 313 312 316 313 315 316 315 317 318 318 318 318 319 320 320 320 319 319 320 320 320 320 321 321 322
305 305 306 308 307 301 307 309 308 308 310 311 311 313 312 316 316 314 311 314 313 314 315 317 317 318 318 318 318 318 318 318 317 317 317 317 317 317 318 318 318 319 320 322
305 306 298 303 302 304 305 305 306 310 312 314 314 315 315 315 315 313 315 313 314 317 317 318 318 318 318 317 316 316 315 315 314 314 314 313 313 313 313 314 314 316 316 317
305 306 306 304 307 307 308 309 309 311 314 314 314 313 313 312 314 311 313 317 318 317 317 319 318 318 317 316 314 312 312 312 313 313 313 314 315 315 315 315 315 314 314 314
305 306 306 308 306 307 310 309 308 312 314 313 313 312 312 312 311 315 316 316 318 314 313 318 318 316 314 312 312 312 313 313 314 314 315 316 317 316 315 315 315 315 316 316
305 306 307 307 307 308 310 313 313 314 313 312 311 312 313 310 312 314 312 314 312 316 316 315 312 311 312 313 313 313 314 314 315 316 318 318 317 315 314 315 316 316 318 317

GFSNW_850_thetae_042.txt.gz
Theta_e
300 301 302 303 304 308 308 316 318 309 307 314 316 318 318 313 316 315 317 318 320 321 323 325 325 325 325 324 325 327 328 330 330 328 330 330 331 332 333 333 335 331 334 333
300 300 301 303 304 311 312 319 317 310 311 315 316 316 315 314 315 316 317 317 319 321 323 325 325 327 324 323 325 326 328 329 331 330 331 330 331 331 333 336 336 334 332 334
300 300 301 303 304 311 315 320 319 313 313 315 316 317 316 316 314 314 315 317 317 319 321 324 326 328 326 326 325 324 328 328 331 329 330 331 333 332 331 333 333 335 332 334
300 300 301 302 303 309 314 317 319 317 316 316 318 319 318 317 316 315 317 318 318 319 322 323 325 329 330 328 326 326 328 331 330 329 330 330 332 331 331 333 333 333 332 333
299 300 301 302 304 307 313 317 318 316 319 319 319 316 321 320 319 318 317 318 320 320 321 324 328 329 331 330 330 330 329 332 330 329 328 328 330 331 331 332 333 333 332 334
299 299 300 301 303 305 310 310 311 315 316 319 320 320 320 319 318 319 317 319 321 323 324 322 326 328 329 332 334 333 332 330 334 328 329 329 330 331 331 332 333 333 334 342
299 299 300 300 302 303 306 305 310 315 320 320 319 317 317 319 319 320 322 322 325 325 323 325 327 325 327 328 332 334 335 336 334 330 334 332 335 334 332 335 335 337 339 341
299 299 299 300 301 302 303 303 308 311 317 317 318 317 317 319 320 321 320 323 323 322 323 329 331 330 330 330 330 333 334 335 335 336 333 336 338 339 337 337 336 338 339 340
299 299 299 299 300 302 303 303 303 308 311 315 313 316 315 319 321 324 323 322 323 322 327 329 331 328 328 331 330 330 334 338 335 334 333 335 337 337 336 334 337 337 339 341
298 299 299 299 300 300 302 304 304 308 310 310 312 315 315 313 317 322 321 319 325 325 327 328 327 325 327 327 329 332 333 333 332 333 333 334 335 336 333 333 338 337 339 341
297 299 298 299 299 300 300 302 303 305 310 309 308 309 312 312 313 319 317 323 326 327 327 327 327 326 327 328 330 331 331 330 331 333 332 334 336 338 335 342 343 341 339 339
297 298 298 298 299 299 300 302 300 300 305 309 304 305 305 307 309 310 314 321 321 321 329 328 327 327 327 331 327 329 331 336 332 334 336 340 340 344 344 345 345 342 340 339
299 297 298 298 298 299 299 300 300 303 309 310 311 313 313 309 308 310 313 315 313 318 318 326 328 330 328 327 329 331 334 333 332 334 338 342 343 343 342 341 345 342 338 339
299 297 298 298 298 298 299 301 304 306 309 311 315 312 313 311 310 310 309 309 309 308 315 323 326 326 323 327 328 329 331 334 338 334 338 339 342 341 340 342 344 344 340 340
299 297 297 298 297 298 301 303 305 306 309 312 312 312 313 313 311 311 311 310 308 311 313 321 324 321 324 324 326 326 329 333 331 334 340 341 342 340 340 342 343 341 341 341
299 297 297 298 297 297 303 310 307 308 307 311 314 312 315 314 313 314 314 313 311 311 313 315 318 318 322 325 326 331 331 332 332 335 337 338 339 339 342 339 338 341 341 339
298 297 297 297 297 298 305 310 309 307 306 311 312 315 316 314 314 314 314 312 312 313 311 312 315 318 318 324 324 329 330 330 333 335 336 336 336 339 340 341 338 338 338 338
297 297 297 297 297 297 304 308 307 305 306 309 314 316 316 315 315 316 313 314 312 312 314 313 313 315 317 320 322 325 326 328 333 333 331 330 335 337 336 337 337 335 335 335
297 297 297 298 302 308 309 305 305 305 308 311 312 316 318 316 316 316 315 315 316 314 313 313 313 314 315 318 320 321 324 326 328 328 331 329 330 334 334 333 332 330 328 327
296 297 305 306 308 307 306 306 310 310 309 308 310 313 318 317 317 317 317 317 317 317 317 315 315 315 318 318 320 322 322 322 324 326 329 329 329 330 329 328 326 324 324 323
298 305 308 307 307 307 309 310 311 311 310 309 309 310 315 316 319 318 318 319 319 318 319 318 318 317 322 321 322 322 322 323 323 325 326 326 326 326 326 326 325 325 325 325
304 306 306 307 308 309 311 311 311 312 311 312 312 311 309 316 319 319 319 319 319 319 319 319 318 325 322 322 321 320 320 321 321 322 322 322 323 322 323 323 323 323 322 323
305 307 308 309 309 309 309 310 311 313 313 315 315 314 311 316 319 319 320 319 319 319 320 320 324 322 322 322 321 320 319 318 318 318 319 319 319 319 320 320 320 320 320 321
307 309 308 310 309 309 310 311 313 314 315 317 318 316 316 317 318 318 318 319 319 320 320 322 323 322 322 321 319 319 318 318 317 318 318 318 318 318 319 319 319 319 320 320
308 308 310 309 309 309 310 311 312 313 314 317 318 318 317 317 317 318 318 318 319 319 321 322 322 322 320 317 314 317 317 317 317 317 318 318 318 319 320 320 320 320 319 319
307 308 309 310 311 311 312 313 314 313 316 317 317 317 317 317 317 317 317 318 319 322 322 321 320 318 317 317 317 317 317 317 318 318 318 319 319 320 320 320 320 319 319 319
307 309 310 310 312 313 314 315 315 315 317 318 317 317 316 317 317 317 318 320 322 321 320 320 318 317 317 317 317 317 317 317 317 318 319 319 320 319 319 319 318 317 316 317

GFSNW_850_thetae_045.txt.gz
Theta_e
300 301 302 303 304 308 308 316 320 315 312 315 317 321 323 317 320 318 320 321 323 324 326 326 327 327 327 326 326 327 328 329 330 332 331 331 332 333 332 333 335 334 332 335
300 301 301 303 304 309 312 320 319 314 313 317 319 320 321 319 319 319 320 320 321 323 324 326 327 327 326 325 326 327 328 328 332 331 331 331 331 333 334 334 335 337 335 334
300 301 301 302 304 309 314 321 320 315 313 316 320 320 320 319 317 318 318 319 320 321 323 325 327 327 328 325 325 325 328 330 331 331 331 332 333 331 331 332 335 335 334 337
300 301 301 302 304 308 314 319 321 321 318 317 318 320 320 320 320 318 317 319 319 321 323 324 325 326 328 329 326 326 328 331 331 330 330 332 332 333 332 331 333 334 335 336
301 301 301 302 304 308 315 320 319 317 321 321 319 317 321 321 321 321 321 319 320 321 322 324 327 329 329 330 330 330 329 331 331 330 330 330 331 332 332 331 332 333 333 338
301 301 301 302 304 310 314 315 317 319 319 321 321 321 321 322 321 321 321 321 320 321 323 324 324 326 330 332 336 333 333 332 332 332 330 330 330 331 333 332 333 334 335 343
300 300 300 301 303 305 312 312 315 317 321 321 321 320 320 321 321 322 322 320 322 323 326 326 325 325 326 328 331 332 336 337 336 332 332 331 330 331 331 332 333 333 341 341
300 300 300 300 302 303 311 310 314 316 320 320 321 320 320 320 321 321 321 322 325 326 326 327 327 326 328 329 330 333 333 337 335 333 332 331 335 334 334 333 333 335 340 341
300 299 299 300 300 303 309 307 309 313 315 318 318 319 320 322 323 324 322 324 325 326 326 326 327 327 327 329 330 332 333 337 338 334 333 335 333 335 334 333 337 337 339 340
298 299 299 299 300 300 306 309 304 312 313 314 313 318 319 317 320 324 326 324 326 327 327 326 326 327 327 328 330 333 333 336 336 335 334 335 338 338 337 339 340 338 338 338
297 299 299 299 299 300 306 308 303 310 313 313 311 312 315 316 317 322 322 325 328 329 328 326 327 327 328 329 333 336 333 334 332 333 336 339 336 338 338 342 341 337 337 339
298 298 299 299 299 300 302 307 306 304 309 312 310 309 309 311 312 314 319 325 326 325 330 330 330 330 329 331 331 331 333 339 339 336 342 341 343 348 346 346 342 340 340 341
299 297 298 298 298 299 300 306 305 311 312 312 312 315 315 313 313 314 317 320 318 323 322 326 329 332 332 328 328 329 334 333 331 336 337 342 341 343 344 345 345 341 340 341
299 298 298 298 298 299 300 309 309 311 312 313 317 314 314 314 314 314 314 314 317 316 318 324 326 328 326 329 330 330 332 328 332 331 336 337 341 343 343 345 346 341 341 341
300 298 297 298 298 299 302 309 309 309 313 315 315 314 314 315 314 314 315 316 317 317 319 322 324 323 326 326 327 327 328 334 332 341 340 339 345 344 344 344 343 342 342 343
300 298 297 298 298 299 308 312 311 310 310 313 316 315 315 315 314 315 317 316 316 315 317 320 320 321 322 325 326 331 330 329 331 336 337 340 341 342 343 341 342 342 343 343
300 298 297 298 298 299 308 311 312 308 305 313 314 315 315 315 315 315 316 316 315 315 316 316 319 319 320 323 325 327 330 331 335 336 337 338 339 341 342 340 340 340 340 340
298 297 297 298 298 299 306 309 307 305 311 311 315 317 317 315 316 316 316 315 315 315 315 315 318 318 319 322 326 328 323 330 332 331 331 332 338 338 339 339 338 335 334 335
297 297 297 298 302 309 312 305 305 304 312 314 312 316 319 317 315 317 317 315 317 315 316 314 316 319 318 321 323 323 326 329 331 329 330 327 329 334 336 334 327 325 327 326
297 298 307 308 309 307 304 304 311 311 311 311 313 313 318 315 316 317 317 317 318 318 317 316 316 316 317 319 321 321 321 323 326 328 327 327 327 329 330 331 328 326 325 323
299 306 310 310 304 309 311 312 312 312 312 311 310 312 315 316 319 320 317 319 320 318 319 319 318 317 321 322 322 320 321 321 324 328 328 327 329 328 327 327 326 325 326 326
305 308 308 308 309 310 312 313 312 313 313 312 312 312 312 317 317 319 319 319 319 320 320 320 318 329 324 323 322 321 321 322 323 324 325 325 326 326 326 326 326 325 325 325
306 309 309 310 310 315 311 312 313 314 313 315 315 315 312 315 317 318 318 319 319 319 320 320 326 325 324 323 322 322 321 321 321 321 321 321 322 322 322 323 323 323 324 324
308 309 309 311 310 311 311 312 314 316 316 316 316 316 314 316 319 318 319 319 319 322 320 321 326 323 323 322 322 321 321 321 321 321 321 321 321 322 322 322 323 323 323 323
309 309 311 309 311 310 311 313 314 314 315 317 318 317 316 317 318 318 318 319 321 319 322 326 324 323 322 322 320 320 321 321 321 321 321 321 321 322 322 323 323 323 322 322
309 309 311 310 311 311 311 312 313 314 316 318 317 317 317 318 317 318 318 318 320 323 324 323 323 322 321 320 320 320 320 320 320 320 321 321 321 322 321 321 321 321 321 320
309 310 310 311 313 313 313 314 315 316 318 320 317 318 317 317 318 317 318 320 323 322 322 323 322 321 320 320 319 320 319 320 320 320 320 320 321 321 322 322 321 321 321 320

GFSNW_850_thetae_048.txt.gz
Theta_e
300 300 301 302 304 306 310 317 321 318 315 315 316 320 323 323 324 322 322 322 323 325 326 327 328 327 327 328 328 328 329 328 330 330 331 331 331 331 331 333 338 336 338 338
300 301 301 302 304 306 311 320 320 318 314 316 318 319 322 324 324 323 323 321 322 324 325 326 328 328 327 327 327 328 329 329 329 330 331 332 331 331 332 335 339 340 340 338
300 300 301 302 303 306 310 322 321 318 315 315 319 322 322 323 322 321 321 322 322 322 323 325 327 328 328 327 326 325 327 330 333 328 332 331 333 331 331 334 337 336 337 342
301 300 301 302 303 306 311 319 323 323 318 317 318 321 322 322 322 321 320 321 321 321 322 324 325 326 328 328 327 326 329 336 330 330 330 331 331 333 332 331 331 333 338 342
302 301 301 302 304 306 313 321 322 322 322 322 320 317 320 322 322 322 322 321 321 321 322 323 325 325 327 328 330 329 328 334 332 331 330 330 330 333 335 336 332 331 333 340
302 301 301 302 304 311 317 317 317 318 321 320 322 321 321 321 322 322 322 323 322 322 323 322 322 325 326 332 334 338 335 333 337 333 330 330 331 330 331 331 333 331 335 339
301 301 301 301 303 307 313 315 316 318 320 323 322 321 322 322 322 322 322 322 323 323 326 326 325 325 326 328 330 332 341 347 337 334 337 334 331 331 330 331 333 339 342 344
301 301 301 301 302 305 312 313 315 318 320 321 321 322 321 321 321 321 321 323 322 326 327 327 327 327 329 327 328 329 332 338 337 338 333 332 331 331 331 331 332 343 339 339
299 300 300 300 301 303 310 314 310 315 317 320 320 321 321 322 323 324 323 321 325 325 327 328 331 326 326 326 326 329 331 342 337 339 335 335 336 339 334 337 339 338 335 334
298 300 300 300 300 301 308 312 307 314 315 316 315 319 321 320 321 324 327 327 325 325 326 326 326 325 326 327 331 334 334 338 337 336 336 335 339 335 336 346 347 336 336 336
298 299 299 299 300 301 308 313 306 310 315 315 314 314 317 318 319 322 321 326 326 327 329 327 327 328 329 330 332 335 336 338 336 338 338 339 345 335 338 337 334 338 337 349
299 298 299 299 299 300 307 312 309 309 310 314 313 311 312 312 315 316 319 322 328 327 331 332 332 330 333 336 335 334 335 342 338 340 342 338 342 346 346 342 342 340 340 344
299 298 298 299 299 300 301 308 311 312 313 314 313 314 315 313 315 315 319 322 321 324 323 326 328 335 331 334 332 335 336 330 333 339 343 340 339 345 339 344 341 341 341 342
300 299 298 299 299 299 301 311 311 313 314 315 317 317 315 314 315 315 316 317 320 321 321 323 326 328 328 331 330 330 331 332 337 340 341 337 343 343 344 345 343 340 340 342
300 299 298 299 298 299 301 310 311 312 314 317 317 315 315 315 315 316 316 318 318 321 321 323 323 325 326 325 329 330 331 334 336 340 341 341 345 344 343 343 341 340 341 343
301 299 298 298 298 300 311 313 313 312 312 315 317 317 317 316 315 315 317 318 318 317 320 321 322 324 323 325 327 328 329 331 329 333 341 343 343 343 341 341 341 341 342 343
301 299 298 298 298 301 310 313 315 306 305 316 315 315 317 316 316 316 316 317 316 317 318 320 321 322 322 324 326 328 329 324 332 333 336 337 338 341 339 341 340 340 340 340
301 298 298 298 298 301 306 309 308 306 313 313 316 319 319 317 316 316 316 317 316 317 317 317 320 321 321 323 322 323 323 321 328 327 331 334 339 337 336 334 332 331 333 335
298 298 298 298 302 310 314 311 307 306 314 316 313 317 322 319 316 317 319 318 318 317 317 317 317 321 321 321 322 320 327 329 326 318 329 328 331 336 332 327 324 327 329 325
298 298 307 310 312 311 310 303 311 311 312 312 315 315 317 320 317 316 317 318 319 317 318 317 317 318 318 319 317 322 322 321 323 328 329 327 328 330 326 324 327 325 324 326
299 307 312 312 308 308 313 314 313 313 313 312 312 313 315 318 318 323 319 321 322 322 319 318 318 319 318 321 322 321 321 320 320 325 330 328 330 328 328 328 327 327 327 327
306 310 310 307 310 312 313 314 313 315 314 313 313 313 313 319 318 320 321 320 320 321 317 322 322 330 324 323 322 321 321 322 324 325 326 326 326 326 326 323 326 326 326 326
307 310 309 311 311 313 313 314 314 314 314 315 314 316 313 314 316 316 321 323 321 320 321 322 326 325 324 323 322 321 320 320 321 321 321 322 322 323 323 324 324 325 325 325
309 310 309 312 311 311 312 313 314 315 315 315 315 316 313 314 317 317 317 318 320 322 320 319 325 325 324 323 323 322 321 321 321 321 321 322 322 323 323 324 324 325 325 325
310 309 311 310 312 311 312 315 317 316 316 318 316 318 315 317 318 320 321 321 321 321 324 325 323 324 324 323 322 322 322 322 322 322 322 323 323 323 324 324 324 323 324 324
310 310 312 310 311 313 313 313 314 314 315 315 317 318 317 320 320 317 319 318 322 323 323 322 323 323 322 322 321 321 322 322 322 322 322 322 323 323 323 322 324 323 322 321
309 310 311 311 313 314 313 313 316 315 318 318 318 319 319 317 320 319 320 322 324 321 320 318 321 321 321 321 321 321 321 321 322 321 321 322 322 322 321 321 322 321 320 320